Location: Beau Repaire
(50.6144°N, 4.0551°E)
Time: 21:36:07
(UTC+00:00)

Cosmos 1975 - Pass Details

Date: 15 May 2026
Orbit: 471 x 485 km, 82.5° (Epoch: 10 June)

Event Time Altitude Azimuth Distance (km) Brightness Sun altitude
Rises 21:53:27 0° 360° (N) 2,575 7.4 -16.5°
Reaches altitude 10° 21:55:54 10° 15° (NNE) 1,687 6.0 -16.7°
Maximum altitude 21:58:55 23° 70° (ENE) 1,073 4.2 -16.9°
Enters shadow 21:59:59 20° 96° (E) 1,167 4.2 -16.9°
